Other Public Products


603 
FPUS83 KFGF 151410
OPUFGF
PRAIRIE TO PINES WEATHER ROUNDUP
NATIONAL WEATHER SERVICE EASTERN NORTH DAKOTA/GRAND FORKS ND
800 AM CST FRI DEC 15 2017
 **SATELLITE DATA USED TO AUGMENT SKY COVER AT AUTOMATED STATIONS**
 *****  WEATHER ACROSS EASTERN NORTH DAKOTA  *****
  
CITY           SKY/WX    TMP DP  RH WIND       PRES   REMARKS
GRAND FORKS    CLOUDY    17  14  88 SE5       29.86F WCI  10          
GRND FORKS AFB FLURRIES  17  14  89 S6        29.84F WCI   8          
GRND FORKS NWS   N/A     18 N/A N/A S5          N/A  WCI  11          
BUXTON         NOT AVBL                                               
DEVILS LAKE    FLURRIES  22  20  92 S8        29.77F WCI  12          
FARGO          FLURRIES  19  15  84 E3        29.87F                  
WAHPETON ARPT  CLOUDY    21  18  86 CALM      29.89F                  
$$
 *****  WEATHER ACROSS CENTRAL AND WESTERN NORTH DAKOTA  *****
  
CITY           SKY/WX    TMP DP  RH WIND       PRES   REMARKS
JAMESTOWN      CLOUDY    23  22  96 S9        29.79F WCI  13          
BISMARCK       MOCLDY    29  23  78 CALM      29.78F                  
MINOT          CLOUDY    31  25  78 S6        29.70F                  
MINOT AFB      MOCLDY    29  24  82 S6        29.69F WCI  23          
GARRISON         N/A     30  25  81 S6        29.72F WCI  24          
WILLISTON      MOCLDY    29  24  82 S3        29.69F                  
DICKINSON      CLOUDY    31  23  72 W10       29.70F WCI  22          
HETTINGER      CLOUDY    28  22  78 W7        29.77F WCI  21          
$$
 *****  OTHER OBSERVATIONS NORTHEAST NORTH DAKOTA  *****
  
CITY           SKY/WX    TMP DP  RH WIND       PRES   REMARKS
WALHALLA       FAIR      16  16 100 SE9       29.82F WCI   4          
LANGDON        FLURRIES  18  18 100 S12       29.76F WCI   5          
CAVALIER       LGT SNOW  14  12  92 SE7       29.83F WCI   4          
GRAFTON        PTSUNNY   16  14  93 SE8       29.86F WCI   5          
CANDO          LGT SNOW  23  23 100 SE7       29.77F WCI  15          
FORT TOTTEN      N/A     22  21  96 CALM      29.95S                  
ROLLA          FLURRIES  21  21 100 S7        29.72F WCI  13          
RUGBY          PTSUNNY   27  25  93 S3        29.73F                  
 ***** THE ABOVE OBSERVATIONS ARE NON NWS ARE NOT QUALITY
        CONTROLLED AND MAY MIS-REPORT RAIN FOR SNOW...
$$
 *****  OTHER OBSERVATIONS SOUTHEAST NORTH DAKOTA *****
  
CITY           SKY/WX    TMP DP  RH WIND       PRES   REMARKS
COOPERSTOWN    CLOUDY    19  18  93 S12       29.80F WCI   7          
VALLEY CITY    CLOUDY    19  19 100 S9        29.83F WCI   9          
OAKES            N/A     23  23 100 SE7       29.84F WCI  15          
GWINNER          N/A     21  21 100 SE5       29.84F WCI  15          
SHEYENNE NWR     N/A     20  19  96 SE2       29.95S                  
BUFFALO        NOT AVBL                                               
WYNDMERE       NOT AVBL                                               
 ***** THE ABOVE OBSERVATIONS ARE NON NWS ARE NOT QUALITY
       CONTROLLED AND MAY MIS-REPORT RAIN FOR SNOW...
$$
  *****  WEATHER ACROSS NORTHERN MINNESOTA  *****     
  
CITY           SKY/WX    TMP DP  RH WIND       PRES   REMARKS
FLAG ISLAND    CLOUDY     5   1  85 CALM      29.84F                  
WARROAD        CLOUDY     7   3  85 SW3       29.85F                  
ROSEAU         CLOUDY     9   3  78 S3        29.85F                  
HALLOCK        FLURRIES  12  10  92 SE6       29.85F WCI   3          
THF RVR FALLS  CLOUDY     9   7  92 S3        29.85F                  
HALSTAD        NOT AVBL                                               
FOSSTON        CLOUDY     5   3  92 CALM      29.86S                  
BAUDETTE       CLOUDY     7   2  80 CALM      29.83F                  
WASKISH        CLOUDY     7   3  85 CALM      29.86S                  
CROOKSTON      LGT SNOW  16  12  86 SE3       29.88F                  
$$
  *****  WEATHER ACROSS CENTRAL AND WEST MINNESOTA  *****     
  
CITY           SKY/WX    TMP DP  RH WIND       PRES   REMARKS
BEMIDJI        FLURRIES   7   4  86 W3        29.83F                  
PARK RAPIDS    FAIR       6   3  87 CALM      29.84S                  
WADENA         FAIR      10   9  92 NW5       29.85S WCI   2          
DETROIT LAKES  MOCLDY    16  14  93 CALM      29.85F                  
MOORHEAD       MIX PCPN  18  14  86 CALM      29.88F                  
FERGUS FALLS   CLOUDY    19  16  86 CALM      29.90F                  
ELBOW LAKE     CLOUDY    20  17  86 CALM      29.87F                  
MORRIS MN      CLOUDY    23  19  86 CALM      29.87S                  
STAPLES        CLOUDY     9   7  92 CALM      29.85F                  
WHEATON        FLURRIES  23  19  86 CALM      29.90F                  
$$
  *****  WEATHER ELSEWHERE ACROSS MINNESOTA  *****     
  
CITY           SKY/WX    TMP DP  RH WIND       PRES   REMARKS
DULUTH         LGT SNOW  10   5  80 W9        29.81S WCI  -3          
INTRNTL FALLS  CLOUDY     6   0  76 W5        29.84F WCI  -3          
ELY            CLOUDY     7   1  78 NW7       29.80S WCI  -5          
CLOQUET        CLOUDY    10   3  72 W7        29.83S WCI   0          
BRAINERD       CLOUDY    13   8  81 W6        29.85F WCI   4          
HIBBING        LGT SNOW   7   2  80 N8        29.82F WCI  -6          
ALEXANDRIA     CLOUDY    19  15  84 CALM      29.86S                  
SAINT CLOUD    CLOUDY    16  14  92 CALM      29.88S                  
MINNEAPOLIS    CLOUDY    23  20  88 NW5       29.89S WCI  17          
$$
  *****  WEATHER ACROSS SOUTH DAKOTA  *****
  
CITY           SKY/WX    TMP DP  RH WIND       PRES   REMARKS
SIOUX FALLS    CLOUDY    32  27  81 W9        29.90F WCI  24          
BROOKINGS      CLOUDY    29  26  89 W8        29.86F WCI  21          
WATERTOWN      FAIR      26  25  96 SW5       29.83F WCI  20          
HURON          FAIR      30  25  81 W7        29.89F WCI  23          
SISSETON         N/A     24  22  91 S3        29.86F                  
ABERDEEN       CLOUDY    29  25  85 W6        29.86F WCI  23          
MITCHELL       FAIR      30  24  78 SW8       29.91F WCI  22          
PIERRE         FAIR      24  21  88 SW6       29.87F WCI  17          
MOBRIDGE       MOCLDY    29  24  82 SW5       29.80F WCI  24          
RAPID CITY     FAIR      22  11  62 CALM      29.84F                  
$$
  *****  SOME WEATHER IN NEARBY STATES *****
  
CITY           SKY/WX    TMP DP  RH WIND       PRES   REMARKS
GLASGOW MT     FAIR      27  21  78 W5        29.72F WCI  22          
GREAT FALLS MT FAIR      43  16  33 SW28G37   29.85R                  
CHEYENNE WY    FAIR      35  11  36 W25G33    29.97F WCI  23          
SCOTTSBLUFF NE FAIR      15  11  83 NW7       29.97F WCI   5          
OMAHA NE       MOCLDY    34  23  64 W12       30.06S                  
DES MOINES IA  CLOUDY    31  23  72 SW8       30.01F WCI  23          
DAVENPORT IA   CLOUDY    25  18  74 W12       30.02S WCI  14          
CHICAGO IL     FLURRIES  26  17  68 W12       29.91S WCI  16          
EAU CLAIRE WI  CLOUDY    17   9  70 NW9       29.88S WCI   6          
LA CROSSE WI   CLOUDY    25  17  72 W6        29.90F WCI  18          
$$
  *****  SOME NATIONAL WEATHER *****
  
CITY           SKY/WX    TMP DP  RH WIND       PRES   REMARKS
LA GUARDIA NY  CLOUDY    25  10  53 CALM      30.12R                  
RALEIGH NC     PTSUNNY   34  24  67 NE8       30.00R                  
ATLANTA GA     PTSUNNY   37  29  72 NW10      30.04R                  
NEW ORLEANS LA LGT RAIN  50  41  71 N10       30.16R                  
OKLAHOMA CITY  FAIR      27  23  85 W7        30.29R WCI  19          
ALBUQUERQUE NM FAIR      25  15  66 N6        30.34S WCI  18          
SALT LAKE CITY FAIR      29  23  78 E9        30.36S WCI  20          
LOS ANGELES CA FAIR      59  21  23 NE5       30.11S                  
BOISE ID       CLOUDY    26  23  88 SE8       30.36R WCI  18          
SEATTLE WA     LGT RAIN  40  34  79 SE7       30.19S                  
$$
*** WEATHER ACROSS MANITOBA...SASKATCHEWAN AND ONTARIO ***
                ***ONTARIO***
  
CITY           SKY/WX    TMP DP  RH WIND       PRES   REMARKS
GERALDTON      FLURRIES  -4  -9  77 N7        29.77S WCI -18          
THUNDER BAY    MOCLDY    10   3  72 N7        29.81S WCI   0          
SIOUX LOOKOUT  PTCLDY   -13 -18  77 VRB2      29.79F                  
TORONTO        CLOUDY    19  10  68 SW10      29.90F WCI   8          
BIG TROUT LK   FLURRIES -11 -17  77 NW8       29.87F WCI -28          
PICKLE LAKE    CLOUDY   -17 -22  76 VRB2      29.82F                  
DRYDEN         PTCLDY    -6  -9  84 W6        29.80F WCI -18          
KENORA         FLURRIES  -6  -9  84 VRB2      29.82F                  
$$      
                *** MANITOBA***
  
CITY           SKY/WX    TMP DP  RH WIND       PRES   REMARKS
BRANDON        FLURRIES  18  16  93 SE5       29.71F WCI  11          
DAUPHIN        CLOUDY    18  14  86 E6        29.71F WCI   9          
ISLAND LAKE    NOT AVBL                                               
PILOT MOUND    NOT AVBL                                               
THE PAS        LGT SNOW   5   1  85 E7        29.78F FOG     WCI  -7  
THOMPSON       FLURRIES -15 -20  76 CALM      29.89F                  
WINNIPEG       FLURRIES   9   3  78 SE9       29.84F WCI  -5          
LYNN LAKE      CLOUDY    -6  -9  84 E9        29.80F WCI -22          
CHURCHILL      FLURRIES  -9 -13  84 W10G17    29.96R WCI -28          
GILLAM         FLURRIES -20 -26  76 W2        29.93R                  
$$
                ***SASKATCHEWAN***
  
CITY           SKY/WX    TMP DP  RH WIND       PRES   REMARKS
ESTEVAN        CLOUDY    30  25  80 SW12      29.63F WCI  21          
KINDERSLEY     MOCLDY    27  23  86 W10       29.61F WCI  17          
LLOYDMINSTER   CLOUDY    37  32  81 W16G22    29.54F                  
PRINCE ALBERT  LGT SNOW  27  27 100 E7        29.57F WCI  19          
REGINA         CLOUDY    30  28  93 S6        29.57F WCI  24          
YORKTON        FLURRIES  27  25  93 SE8       29.61F WC